Regional Weather Roundup
Issued by NWS

Home | Current Version | Previous Version | Graphics & Text | Print | Product List | Glossary On
Versions: 1 2 3 4 5 6 7 8 9 10 11 12 13 14 15 16 17 18 19 20 21 22 23 24 25 26 27 28 29 30 31 32 33 34 35 36 37 38 39 40 41 42 43 44 45 46 47 48 49 50
000
ASUS43 KDTX 261210
RWRMI
MICHIGAN HOURLY REGIONAL WEATHER ROUNDUP
NATIONAL WEATHER SERVICE DETROIT/PONTIAC MI
700 AM EST WED NOV 26 2014

NOTE: "FAIR" INDICATES FEW OR NO CLOUDS BELOW 12,000 FEET WITH NO
SIGNIFICANT WEATHER AND/OR OBSTRUCTION TO VISIBILITY.

MIZ047>049-052>055-059>063-066>070-074>076-081>083-261300-
SOUTHEAST LOWER MICHIGAN

CITY           SKY/WX    TMP DP  RH WIND       PRES   REMARKS
ADRIAN         CLOUDY    27  20  75 E6        30.17F
6HR MIN TEMP:  27; 6HR MAX TEMP:  28;

ALMA           CLOUDY    28  21  74 CALM      30.17S
ANN ARBOR      CLOUDY    29  19  66 NE3       30.16F
BAD AXE        CLOUDY    29  23  78 SW3       30.19S
6HR MIN TEMP:  29; 6HR MAX TEMP:  30;

DETROIT CITY   CLOUDY    32  20  61 N7        30.17F
6HR MIN TEMP:  32; 6HR MAX TEMP:  33;

DETROIT        CLOUDY    29  22  75 S6        30.17F
6HR MIN TEMP:  29; 6HR MAX TEMP:  30;

FLINT          CLOUDY    31  20  63 CALM      30.18S
6HR MIN TEMP:  30; 6HR MAX TEMP:  31;

GROSSE ILE     CLOUDY    30  23  74 CALM      30.16F
HILLSDALE      CLOUDY    26  21  80 NE5       30.13F
6HR MIN TEMP:  26; 6HR MAX TEMP:  26;

HOWELL         CLOUDY    28  21  78 CALM      30.16S
6HR MIN TEMP:  28; 6HR MAX TEMP:  28;


CITY           SKY/WX    TMP DP  RH WIND       PRES   REMARKS
JACKSON        CLOUDY    27  20  75 E3        30.15F
6HR MIN TEMP:  26; 6HR MAX TEMP:  27;

LAMBERTVILLE   CLOUDY    30  23  74 CALM      30.17S
LANSING        CLOUDY    28  19  69 NE3       30.17S
6HR MIN TEMP:  28; 6HR MAX TEMP:  29;

LAPEER         NOT AVBL
MASON          CLOUDY    28  22  79 E3        30.16S
MONROE         CLOUDY    28  23  80 CALM      30.15F
MT. CLEMENS    CLOUDY    30  23  75 N7        30.15F
6HR MIN TEMP:  30; 6HR MAX TEMP:  31;

PONTIAC        CLOUDY    28  20  71 NE6       30.15S
6HR MIN TEMP:  28; 6HR MAX TEMP:  29;

PORT HOPE        N/A     30  20  66 VRB5      30.18R
6HR MIN TEMP:  30; 6HR MAX TEMP:  31;

PORT HURON     CLOUDY    30  23  74 CALM      30.18F
TRI CITIES     CLOUDY    30  21  69 NE5       30.19S
6HR MIN TEMP:  30; 6HR MAX TEMP:  31;

YPSILANTI      CLOUDY    32  22  66 N3        30.17F
6HR MIN TEMP:  32; 6HR MAX TEMP:  33;

$$
MIZ043>046-050>051-056>058-064>065-071>073-077>080-261300-
SOUTHWEST LOWER MICHIGAN

CITY           SKY/WX    TMP DP  RH WIND       PRES   REMARKS
BATTLE CREEK   CLOUDY    28  19  69 E3        30.15F
6HR MIN TEMP:  28; 6HR MAX TEMP:  29;

BENTON HARBOR  CLOUDY    24  18  77 SE6       30.17S
6HR MIN TEMP:  23; 6HR MAX TEMP:  25;

BIG RAPIDS     CLOUDY    27  26  96 CALM      30.14R
6HR MIN TEMP:  27; 6HR MAX TEMP:  27;

COLDWATER      CLOUDY    28  21  77 E6        30.15F
6HR MIN TEMP:  27; 6HR MAX TEMP:  28;

HOLLAND        CLOUDY    29  22  75 S7        30.16S
6HR MIN TEMP:  29; 6HR MAX TEMP:  30;

GRAND RAPIDS   CLOUDY    28  22  78 SE6       30.16S
6HR MIN TEMP:  28; 6HR MAX TEMP:  28;

KALAMAZOO      CLOUDY    27  19  72 SE5       30.16F
6HR MIN TEMP:  27; 6HR MAX TEMP:  27;

MARSHALL       CLOUDY    26  19  77 E5        30.15S
MUSKEGON       CLOUDY    29  23  78 SE7       30.15F
6HR MIN TEMP:  29; 6HR MAX TEMP:  32;

$$
MIZ016>042-261300-
NORTHERN LOWER MICHIGAN

CITY           SKY/WX    TMP DP  RH WIND       PRES   REMARKS
ALPENA         CLOUDY    26  22  84 CALM      30.18S
6HR MIN TEMP:  26; 6HR MAX TEMP:  27;

BEAVER ISLAND  CLOUDY    29  25  85 E3        30.13F
6HR MIN TEMP:  26; 6HR MAX TEMP:  29;

BELLAIRE       CLOUDY    26  21  81 CALM      30.17S
CADILLAC       CLOUDY    24  21  89 E3        30.11S
CHARLEVOIX     CLOUDY    26  21  83 S6        30.17S
6HR MIN TEMP:  26; 6HR MAX TEMP:  28;

FRANKFORT      CLOUDY    26  24  91 CALM      30.15S
GAYLORD        CLOUDY    22  15  75 CALM      30.13R
6HR MIN TEMP:  22; 6HR MAX TEMP:  24;

GRAYLING       FLURRIES  24  20  87 CALM      30.14S
6HR MIN TEMP:  23; 6HR MAX TEMP:  26;

HARBOR SPRINGS CLOUDY    26  20  80 CALM      30.16S
HOUGHTON LAKE  CLOUDY    24  20  84 E5        30.14S
6HR MIN TEMP:  24; 6HR MAX TEMP:  25;

MANISTEE       CLOUDY    27  21  80 SE5       30.15S
OSCODA         CLOUDY    28  22  78 SW3       30.19R
PELLSTON       CLOUDY    26  22  84 CALM      30.16S
6HR MIN TEMP:  24; 6HR MAX TEMP:  26; 6HR PCP: TRACE;

TRAVERSE CITY  CLOUDY    27  20  75 SE5       30.15S
6HR MIN TEMP:  26; 6HR MAX TEMP:  27;

$$
MIZ007>008-015-261300-
EASTERN UPPER MICHIGAN

CITY           SKY/WX    TMP DP  RH WIND       PRES   REMARKS
KINROSS        CLOUDY    14  14 100 CALM      30.15F
6HR MIN TEMP:  12; 6HR MAX TEMP:  21;

MACKINAC ISLAN CLOUDY    27  21  80 E3        30.15S
6HR MIN TEMP:  25; 6HR MAX TEMP:  27;

NEWBERRY       PTCLDY    11  10  94 CALM      30.14S
6HR MIN TEMP:   2; 6HR MAX TEMP:  12;

S. S. MARIE    MOCLDY    17  11  77 CALM      30.16F
6HR MIN TEMP:  16; 6HR MAX TEMP:  24;

$$
MIZ004>006-011>014-085-261300-
CENTRAL UPPER MICHIGAN

CITY           SKY/WX    TMP DP  RH WIND       PRES   REMARKS
MANISTIQUE     CLOUDY    14  12  93 NW5       30.14F
6HR MIN TEMP:   8; 6HR MAX TEMP:  16;

ESCANABA       PTCLDY     7   3  85 CALM      30.15S
6HR MIN TEMP:   7; 6HR MAX TEMP:  16;

MENOMINEE      PTCLDY    10   7  85 NW3       30.15R
6HR MIN TEMP:   9; 6HR MAX TEMP:  18;

SAWYER-GWINN   CLEAR     -6  -9  84 CALM      30.10S
$$
MIZ001>003-009>011-084-261300-
WESTERN UPPER MICHIGAN

CITY           SKY/WX    TMP DP  RH WIND       PRES   REMARKS
IRON MOUNTAIN  PTCLDY    -3  -8  79 CALM      30.11F
6HR MIN TEMP:  -4; 6HR MAX TEMP:   1;

HOUGHTON       CLOUDY    15  10  80 CALM      30.08F
6HR MIN TEMP:   4; 6HR MAX TEMP:  15;

COPPER HARBOR    N/A     21  14  74 SW7       30.10F
6HR MIN TEMP:  21; 6HR MAX TEMP:  25;

IRONWOOD       CLOUDY    12  10  92 CALM      30.06S
6HR MIN TEMP:   1; 6HR MAX TEMP:  14;

$$

ABBREVIATIONS USED IN REMARKS
   TC - TEMPERATURE IN CELSIUS
  WCI - WIND CHILL INDEX
   HX - HEAT INDEX
  VSB - VISIBILITY



USA.gov is the U.S. government's official web portal to all federal, state and local government web resources and services.